Time,TemperatureF,DewpointF,PressureIn,WindDirection,WindDirectionDegrees,WindSpeedMPH,WindSpeedGustMPH,Humidity,HourlyPrecipIn,Conditions,Clouds,dailyrainin,SolarRadiationWatts/m^2,SoftwareType,DateUTC
2018-04-20 00:00:00,61.4,28.9,29.91,SSW,209,0.0,7.0,29,0.00,,BKN250,0.00,0.00,VWS V14.01,2018-04-20 06:00:00,
2018-04-20 00:05:00,61.3,28.8,29.91,ESE,106,0.0,7.0,29,0.00,,BKN250,0.00,0.00,VWS V14.01,2018-04-20 06:05:00,
2018-04-20 00:10:00,61.2,28.7,29.91,South,178,0.0,6.0,29,0.00,,BKN250,0.00,0.00,VWS V14.01,2018-04-20 06:10:00,
2018-04-20 00:15:00,61.2,28.7,29.91,ESE,103,1.0,4.0,29,0.00,,BKN250,0.00,0.00,VWS V14.01,2018-04-20 06:15:00,
2018-04-20 00:20:00,61.1,29.5,29.91,SSE,162,2.0,7.0,30,0.00,,BKN250,0.00,0.00,VWS V14.01,2018-04-20 06:20:00,
2018-04-20 00:25:00,61.1,29.5,29.91,East,96,1.0,7.0,30,0.00,,BKN250,0.00,0.00,VWS V14.01,2018-04-20 06:25:00,
2018-04-20 00:30:00,61.1,29.5,29.91,SSE,157,1.0,10.0,30,0.00,,BKN250,0.00,0.00,VWS V14.01,2018-04-20 06:30:00,
2018-04-20 00:35:00,61.1,29.5,29.91,South,177,1.0,6.0,30,0.00,,BKN250,0.00,0.00,VWS V14.01,2018-04-20 06:35:00,
2018-04-20 00:41:00,61.1,29.5,29.91,SSW,197,0.0,2.0,30,0.00,,BKN250,0.00,0.00,VWS V14.01,2018-04-20 06:41:00,
2018-04-20 00:46:00,61.1,29.5,29.91,South,174,2.0,3.0,30,0.00,,BKN250,0.00,0.00,VWS V14.01,2018-04-20 06:46:00,
2018-04-20 00:51:00,61.0,29.4,29.91,ESE,108,0.0,4.0,30,0.00,,BKN250,0.00,0.00,VWS V14.01,2018-04-20 06:51:00,
2018-04-20 00:56:00,60.9,30.1,29.91,ESE,123,0.0,4.0,31,0.00,,BKN250,0.00,0.00,VWS V14.01,2018-04-20 06:56:00,
2018-04-20 01:01:00,60.8,30.0,29.91,East,95,2.0,10.0,31,0.00,,BKN250,0.00,0.00,VWS V14.01,2018-04-20 07:01:00,
2018-04-20 01:06:00,60.7,29.9,29.91,East,85,0.0,8.0,31,0.00,,BKN250,0.00,0.00,VWS V14.01,2018-04-20 07:06:00,
2018-04-20 01:11:00,60.6,29.8,29.90,East,101,0.0,15.0,31,0.00,,BKN250,0.00,0.00,VWS V14.01,2018-04-20 07:11:00,
2018-04-20 01:16:00,60.5,30.5,29.90,South,171,0.0,7.0,32,0.00,,BKN250,0.00,0.00,VWS V14.01,2018-04-20 07:16:00,
2018-04-20 01:21:00,60.4,30.4,29.90,East,99,0.0,8.0,32,0.00,,BKN250,0.00,0.00,VWS V14.01,2018-04-20 07:21:00,
2018-04-20 01:27:00,60.3,30.3,29.90,ESE,107,0.0,11.0,32,0.00,,BKN250,0.00,0.00,VWS V14.01,2018-04-20 07:27:00,
2018-04-20 01:32:00,60.2,30.2,29.90,ESE,114,0.0,8.0,32,0.00,,BKN250,0.00,0.00,VWS V14.01,2018-04-20 07:32:00,
2018-04-20 01:37:00,60.0,30.1,29.90,SSW,199,0.0,8.0,32,0.00,,BKN250,0.00,0.00,VWS V14.01,2018-04-20 07:37:00,
2018-04-20 01:42:00,59.9,30.8,29.89,ESE,113,3.0,12.0,33,0.00,,BKN250,0.00,0.00,VWS V14.01,2018-04-20 07:42:00,
2018-04-20 01:47:00,59.8,30.7,29.89,South,180,2.0,7.0,33,0.00,,BKN250,0.00,0.00,VWS V14.01,2018-04-20 07:47:00,
2018-04-20 01:52:00,59.8,31.4,29.89,ESE,105,1.0,7.0,34,0.00,,BKN250,0.00,0.00,VWS V14.01,2018-04-20 07:52:00,
2018-04-20 01:57:00,59.7,32.0,29.89,South,187,0.0,7.0,35,0.00,,BKN250,0.00,0.00,VWS V14.01,2018-04-20 07:57:00,
2018-04-20 02:02:00,59.6,31.9,29.89,SE,128,8.0,10.0,35,0.00,,OVC270,0.00,0.00,VWS V14.01,2018-04-20 08:02:00,
2018-04-20 02:07:00,59.5,32.5,29.89,SE,146,0.0,3.0,36,0.00,,OVC270,0.00,0.00,VWS V14.01,2018-04-20 08:07:00,
2018-04-20 02:13:00,59.3,32.4,29.89,SE,135,0.0,13.0,36,0.00,,OVC270,0.00,0.00,VWS V14.01,2018-04-20 08:13:00,
2018-04-20 02:18:00,59.2,33.0,29.89,SE,126,1.0,7.0,37,0.00,,OVC270,0.00,0.00,VWS V14.01,2018-04-20 08:18:00,
2018-04-20 02:23:00,59.0,32.8,29.89,South,187,0.0,0.0,37,0.00,,OVC270,0.00,0.00,VWS V14.01,2018-04-20 08:23:00,
2018-04-20 02:28:00,58.9,33.4,29.89,SSE,152,0.0,0.0,38,0.00,,OVC270,0.00,0.00,VWS V14.01,2018-04-20 08:28:00,
2018-04-20 02:33:00,58.9,33.4,29.89,ESE,119,0.0,2.0,38,0.00,,OVC270,0.00,0.00,VWS V14.01,2018-04-20 08:33:00,
2018-04-20 02:38:00,58.9,33.4,29.88,ESE,115,0.0,1.0,38,0.00,,OVC270,0.00,0.00,VWS V14.01,2018-04-20 08:38:00,
2018-04-20 02:43:00,58.9,33.4,29.88,East,85,7.0,7.0,38,0.00,,OVC270,0.00,0.00,VWS V14.01,2018-04-20 08:43:00,
2018-04-20 02:48:00,58.9,34.0,29.88,ESE,107,4.0,7.0,39,0.00,,OVC270,0.00,0.00,VWS V14.01,2018-04-20 08:48:00,
2018-04-20 02:53:00,58.9,34.0,29.88,SSE,167,0.0,2.0,39,0.00,,OVC270,0.00,0.00,VWS V14.01,2018-04-20 08:53:00,
2018-04-20 02:58:00,58.8,34.5,29.88,East,82,0.0,2.0,40,0.00,,OVC270,0.00,0.00,VWS V14.01,2018-04-20 08:58:00,
2018-04-20 03:04:00,58.7,34.5,29.87,ESE,117,2.0,4.0,40,0.00,,BKN270,0.00,0.00,VWS V14.01,2018-04-20 09:04:00,
2018-04-20 03:09:00,58.8,34.5,29.87,ENE,74,0.0,2.0,40,0.00,,BKN270,0.00,0.00,VWS V14.01,2018-04-20 09:09:00,
2018-04-20 03:14:00,58.8,35.2,29.87,ESE,115,0.0,11.0,41,0.00,,BKN270,0.00,0.00,VWS V14.01,2018-04-20 09:14:00,
2018-04-20 03:19:00,58.8,35.2,29.86,ESE,108,2.0,5.0,41,0.00,,BKN270,0.00,0.00,VWS V14.01,2018-04-20 09:19:00,
2018-04-20 03:24:00,58.7,35.1,29.86,ESE,106,0.0,11.0,41,0.00,,BKN270,0.00,0.00,VWS V14.01,2018-04-20 09:24:00,
2018-04-20 03:29:00,58.7,35.7,29.86,East,92,0.0,6.0,42,0.00,,BKN270,0.00,0.00,VWS V14.01,2018-04-20 09:29:00,
2018-04-20 03:34:00,58.6,35.6,29.87,ESE,115,2.0,3.0,42,0.00,,BKN270,0.00,0.00,VWS V14.01,2018-04-20 09:34:00,
2018-04-20 03:39:00,58.5,36.1,29.87,SE,140,1.0,6.0,43,0.00,,BKN270,0.00,0.00,VWS V14.01,2018-04-20 09:39:00,
2018-04-20 03:44:00,58.4,36.0,29.87,WSW,238,0.0,7.0,43,0.00,,BKN270,0.00,0.00,VWS V14.01,2018-04-20 09:44:00,
2018-04-20 03:50:00,58.3,36.5,29.87,ESE,104,0.0,1.0,44,0.00,,BKN270,0.00,0.00,VWS V14.01,2018-04-20 09:50:00,
2018-04-20 03:55:00,58.1,36.3,29.87,SSE,163,0.0,1.0,44,0.00,,BKN270,0.00,0.00,VWS V14.01,2018-04-20 09:55:00,
2018-04-20 04:00:00,58.0,36.2,29.86,ESE,103,2.0,7.0,44,0.00,,SCT270,0.00,0.00,VWS V14.01,2018-04-20 10:00:00,
2018-04-20 04:05:00,57.8,36.6,29.86,ESE,104,2.0,4.0,45,0.00,,SCT270,0.00,0.00,VWS V14.01,2018-04-20 10:05:00,
2018-04-20 04:10:00,57.7,37.1,29.86,ESE,110,0.0,1.0,46,0.00,,SCT270,0.00,0.00,VWS V14.01,2018-04-20 10:10:00,
2018-04-20 04:15:00,57.6,37.0,29.87,ESE,114,0.0,7.0,46,0.00,,SCT270,0.00,0.00,VWS V14.01,2018-04-20 10:15:00,
2018-04-20 04:20:00,57.5,36.9,29.86,ESE,105,0.0,8.0,46,0.00,,SCT270,0.00,0.00,VWS V14.01,2018-04-20 10:20:00,
2018-04-20 04:25:00,57.4,36.8,29.86,SSE,150,0.0,2.0,46,0.00,,SCT270,0.00,0.00,VWS V14.01,2018-04-20 10:25:00,
2018-04-20 04:30:00,57.3,36.7,29.86,SSE,149,0.0,1.0,46,0.00,,SCT270,0.00,0.00,VWS V14.01,2018-04-20 10:30:00,
2018-04-20 04:36:00,57.2,37.2,29.86,ESE,119,0.0,3.0,47,0.00,,SCT270,0.00,0.00,VWS V14.01,2018-04-20 10:36:00,
2018-04-20 04:41:00,57.0,37.0,29.86,SSE,164,0.0,2.0,47,0.00,,SCT270,0.00,0.00,VWS V14.01,2018-04-20 10:41:00,
2018-04-20 04:46:00,56.8,36.8,29.85,East,86,0.0,5.0,47,0.00,,SCT270,0.00,0.00,VWS V14.01,2018-04-20 10:46:00,
2018-04-20 04:51:00,56.7,37.2,29.85,East,91,0.0,7.0,48,0.00,,SCT270,0.00,0.00,VWS V14.01,2018-04-20 10:51:00,
2018-04-20 04:56:00,56.6,37.2,29.85,ESE,120,1.0,8.0,48,0.00,,SCT270,0.00,0.00,VWS V14.01,2018-04-20 10:56:00,
2018-04-20 05:01:00,56.5,37.1,29.85,ESE,107,0.0,5.0,48,0.00,,BKN250,0.00,0.00,VWS V14.01,2018-04-20 11:01:00,
2018-04-20 05:06:00,56.4,37.0,29.85,ESE,104,0.0,5.0,48,0.00,,BKN250,0.00,0.00,VWS V14.01,2018-04-20 11:06:00,
2018-04-20 05:11:00,56.4,38.0,29.85,SSE,161,0.0,3.0,50,0.00,,BKN250,0.00,0.00,VWS V14.01,2018-04-20 11:11:00,
2018-04-20 05:16:00,56.2,37.3,29.85,ESE,116,0.0,2.0,49,0.00,,BKN250,0.00,0.00,VWS V14.01,2018-04-20 11:16:00,
2018-04-20 05:22:00,56.1,37.2,29.85,SE,132,0.0,3.0,49,0.00,,BKN250,0.00,0.00,VWS V14.01,2018-04-20 11:22:00,
2018-04-20 05:27:00,56.0,37.1,29.85,ESE,122,0.0,3.0,49,0.00,,BKN250,0.00,0.00,VWS V14.01,2018-04-20 11:27:00,
2018-04-20 05:32:00,56.0,37.1,29.85,ESE,123,0.0,1.0,49,0.00,,BKN250,0.00,0.00,VWS V14.01,2018-04-20 11:32:00,
2018-04-20 05:37:00,55.9,37.0,29.86,ESE,123,0.0,0.0,49,0.00,,BKN250,0.00,0.00,VWS V14.01,2018-04-20 11:37:00,
2018-04-20 05:42:00,55.8,37.5,29.86,ESE,122,0.0,1.0,50,0.00,,BKN250,0.00,0.00,VWS V14.01,2018-04-20 11:42:00,
2018-04-20 05:47:00,55.7,38.4,29.87,SSW,210,0.0,6.0,52,0.00,,BKN250,0.00,0.00,VWS V14.01,2018-04-20 11:47:00,
2018-04-20 05:52:00,56.0,39.6,29.87,South,184,2.0,7.0,54,0.00,,BKN250,0.00,0.00,VWS V14.01,2018-04-20 11:52:00,
2018-04-20 05:57:00,56.7,37.8,29.88,SW,220,0.0,11.0,49,0.00,,BKN250,0.00,0.00,VWS V14.01,2018-04-20 11:57:00,
2018-04-20 06:02:00,56.6,31.3,29.88,SSW,207,3.0,9.0,38,0.00,,BKN250,0.00,0.00,VWS V14.01,2018-04-20 12:02:00,
2018-04-20 06:08:00,55.9,23.3,29.88,West,261,5.0,13.0,28,0.00,,BKN250,0.00,0.00,VWS V14.01,2018-04-20 12:08:00,
2018-04-20 06:13:00,55.1,19.9,29.89,West,269,5.0,11.0,25,0.00,,BKN250,0.00,0.00,VWS V14.01,2018-04-20 12:13:00,
2018-04-20 06:18:00,54.4,19.3,29.89,SW,233,5.0,8.0,25,0.00,,BKN250,0.00,0.00,VWS V14.01,2018-04-20 12:18:00,
2018-04-20 06:23:00,53.9,18.0,29.89,WSW,244,2.0,7.0,24,0.00,,BKN250,0.00,0.00,VWS V14.01,2018-04-20 12:23:00,
2018-04-20 06:28:00,53.3,18.4,29.89,West,265,3.0,13.0,25,0.00,,BKN250,0.00,0.00,VWS V14.01,2018-04-20 12:28:00,
2018-04-20 06:33:00,53.1,18.2,29.89,WSW,258,5.0,11.0,25,0.00,,BKN230,0.00,0.00,VWS V14.01,2018-04-20 12:33:00,
2018-04-20 06:38:00,52.8,18.9,29.90,West,261,2.0,10.0,26,0.00,,BKN230,0.00,0.00,VWS V14.01,2018-04-20 12:38:00,
2018-04-20 06:43:00,52.7,19.7,29.90,WNW,287,10.0,12.0,27,0.00,,BKN230,0.00,5.00,VWS V14.01,2018-04-20 12:43:00,
2018-04-20 06:48:00,52.4,21.1,29.91,WSW,241,1.0,18.0,29,0.00,,BKN230,0.00,5.00,VWS V14.01,2018-04-20 12:48:00,
2018-04-20 06:53:00,52.2,21.7,29.90,West,277,5.0,13.0,30,0.00,,BKN230,0.00,7.00,VWS V14.01,2018-04-20 12:53:00,
2018-04-20 06:58:00,52.0,21.5,29.91,WSW,242,6.0,18.0,30,0.00,,BKN230,0.00,26.00,VWS V14.01,2018-04-20 12:58:00,
2018-04-20 07:03:00,52.0,22.3,29.92,West,278,2.0,14.0,31,0.00,,SCT220,0.00,16.00,VWS V14.01,2018-04-20 13:03:00,
2018-04-20 07:08:00,52.1,21.6,29.92,WNW,298,5.0,11.0,30,0.00,,SCT220,0.00,21.00,VWS V14.01,2018-04-20 13:08:00,
2018-04-20 07:13:00,52.2,20.1,29.93,WNW,294,0.0,4.0,28,0.00,,SCT220,0.00,9.00,VWS V14.01,2018-04-20 13:13:00,
2018-04-20 07:18:00,52.2,20.1,29.93,WNW,299,9.0,9.0,28,0.00,,SCT220,0.00,7.00,VWS V14.01,2018-04-20 13:18:00,
2018-04-20 07:23:00,52.2,20.1,29.94,West,280,3.0,8.0,28,0.00,,SCT220,0.00,9.00,VWS V14.01,2018-04-20 13:23:00,
2018-04-20 07:28:00,52.2,20.1,29.95,WSW,251,0.0,1.0,28,0.00,,SCT220,0.00,26.00,VWS V14.01,2018-04-20 13:28:00,
2018-04-20 07:33:00,52.2,20.9,29.95,NW,316,1.0,3.0,29,0.00,,BKN160,0.00,32.00,VWS V14.01,2018-04-20 13:33:00,
2018-04-20 07:38:00,52.2,20.9,29.95,WNW,296,2.0,8.0,29,0.00,,BKN160,0.00,69.00,VWS V14.01,2018-04-20 13:38:00,
2018-04-20 07:44:00,52.2,20.9,29.95,NW,322,2.0,4.0,29,0.00,,BKN160,0.00,76.00,VWS V14.01,2018-04-20 13:44:00,
2018-04-20 07:49:00,52.2,20.9,29.96,NW,307,5.0,5.0,29,0.00,,BKN160,0.00,30.00,VWS V14.01,2018-04-20 13:49:00,
2018-04-20 07:54:00,52.2,21.7,29.96,NW,313,0.0,3.0,30,0.00,,BKN160,0.00,42.00,VWS V14.01,2018-04-20 13:54:00,
2018-04-20 07:59:00,52.2,20.9,29.95,NW,315,0.0,3.0,29,0.00,,BKN160,0.00,58.00,VWS V14.01,2018-04-20 13:59:00,
2018-04-20 08:04:00,52.3,21.8,29.95,NW,315,0.0,2.0,30,0.00,,BKN150,0.00,63.00,VWS V14.01,2018-04-20 14:04:00,
2018-04-20 08:09:00,52.3,21.8,29.95,NW,315,0.0,3.0,30,0.00,,BKN150,0.00,79.00,VWS V14.01,2018-04-20 14:09:00,
2018-04-20 08:14:00,52.3,22.6,29.96,NW,315,0.0,0.0,31,0.00,,BKN150,0.00,97.00,VWS V14.01,2018-04-20 14:14:00,
2018-04-20 08:19:00,52.4,21.9,29.96,NW,315,0.0,1.0,30,0.00,,BKN150,0.00,125.00,VWS V14.01,2018-04-20 14:19:00,
2018-04-20 08:24:00,52.5,22.8,29.96,NW,315,0.0,0.0,31,0.00,,BKN150,0.00,132.00,VWS V14.01,2018-04-20 14:24:00,
2018-04-20 08:30:00,52.6,22.1,29.96,NW,315,0.0,0.0,30,0.00,,BKN150,0.00,162.00,VWS V14.01,2018-04-20 14:30:00,
2018-04-20 08:35:00,52.7,21.4,29.96,NW,315,0.0,0.0,29,0.00,,BKN150,0.00,174.00,VWS V14.01,2018-04-20 14:35:00,
2018-04-20 08:40:00,52.8,21.4,29.95,NW,315,0.0,1.0,29,0.00,,BKN150,0.00,171.00,VWS V14.01,2018-04-20 14:40:00,
2018-04-20 08:45:00,53.1,21.7,29.95,NW,315,1.0,3.0,29,0.00,,BKN150,0.00,237.00,VWS V14.01,2018-04-20 14:45:00,
2018-04-20 08:50:00,53.4,22.0,29.95,NW,315,1.0,1.0,29,0.00,,BKN150,0.00,364.00,VWS V14.01,2018-04-20 14:50:00,
2018-04-20 08:55:00,53.8,21.5,29.94,NW,304,0.0,0.0,28,0.00,,BKN150,0.00,330.00,VWS V14.01,2018-04-20 14:55:00,
2018-04-20 09:00:00,54.2,21.8,29.95,NW,304,0.0,2.0,28,0.00,,SHRA,0.00,248.00,VWS V14.01,2018-04-20 15:00:00,
2018-04-20 09:05:00,54.5,21.2,29.95,SW,224,3.0,6.0,27,0.00,,SHRA,0.00,292.00,VWS V14.01,2018-04-20 15:05:00,
2018-04-20 09:10:00,54.8,21.5,29.95,SSW,194,1.0,7.0,27,0.00,,SHRA,0.00,290.00,VWS V14.01,2018-04-20 15:10:00,
2018-04-20 09:16:00,55.1,21.7,29.95,South,190,1.0,3.0,27,0.00,,SHRA,0.00,306.00,VWS V14.01,2018-04-20 15:16:00,
2018-04-20 09:21:00,55.3,21.0,29.95,SW,229,1.0,7.0,26,0.00,,SHRA,0.00,244.00,VWS V14.01,2018-04-20 15:21:00,
2018-04-20 09:26:00,55.1,20.9,29.95,SW,217,6.0,9.0,26,0.00,,SHRA,0.00,272.00,VWS V14.01,2018-04-20 15:26:00,
2018-04-20 09:31:00,54.7,20.5,29.95,SW,236,5.0,7.0,26,0.00,,SHRA,0.00,257.00,VWS V14.01,2018-04-20 15:31:00,
2018-04-20 09:36:00,54.6,20.4,29.96,SSW,205,2.0,9.0,26,0.00,,SHRA,0.00,462.00,VWS V14.01,2018-04-20 15:36:00,
2018-04-20 09:41:00,55.0,20.8,29.96,WSW,241,1.0,2.0,26,0.00,,SHRA,0.00,636.00,VWS V14.01,2018-04-20 15:41:00,
2018-04-20 09:46:00,55.7,21.4,29.96,WSW,244,1.0,4.0,26,0.00,,SHRA,0.00,705.00,VWS V14.01,2018-04-20 15:46:00,
2018-04-20 09:51:00,56.6,20.2,29.96,WSW,246,3.0,8.0,24,0.00,,SHRA,0.00,603.00,VWS V14.01,2018-04-20 15:51:00,
2018-04-20 09:56:00,56.9,21.5,29.95,West,259,2.0,6.0,25,0.00,,SHRA,0.00,534.00,VWS V14.01,2018-04-20 15:56:00,
2018-04-20 10:02:00,57.1,20.7,29.95,West,263,0.0,8.0,24,0.00,,BKN140,0.00,677.00,VWS V14.01,2018-04-20 16:02:00,
2018-04-20 10:07:00,57.8,21.3,29.95,West,264,3.0,5.0,24,0.00,,BKN140,0.00,701.00,VWS V14.01,2018-04-20 16:07:00,
2018-04-20 10:12:00,58.3,21.7,29.95,SSW,201,3.0,5.0,24,0.00,,BKN140,0.00,721.00,VWS V14.01,2018-04-20 16:12:00,
2018-04-20 10:17:00,58.3,20.7,29.95,SW,221,4.0,9.0,23,0.00,,BKN140,0.00,733.00,VWS V14.01,2018-04-20 16:17:00,
2018-04-20 10:22:00,58.2,18.5,29.95,SSW,201,3.0,17.0,21,0.00,,BKN140,0.00,747.00,VWS V14.01,2018-04-20 16:22:00,
2018-04-20 10:27:00,58.0,18.3,29.95,SSW,195,4.0,16.0,21,0.00,,BKN140,0.00,765.00,VWS V14.01,2018-04-20 16:27:00,
2018-04-20 10:32:00,57.9,17.1,29.95,South,179,4.0,18.0,20,0.00,,BKN140,0.00,780.00,VWS V14.01,2018-04-20 16:32:00,
2018-04-20 10:37:00,58.5,16.4,29.95,SSW,202,4.0,13.0,19,0.00,,BKN140,0.00,789.00,VWS V14.01,2018-04-20 16:37:00,
2018-04-20 10:42:00,59.2,15.7,29.94,WSW,246,6.0,13.0,18,0.00,,BKN140,0.00,812.00,VWS V14.01,2018-04-20 16:42:00,
2018-04-20 10:48:00,59.5,17.2,29.94,SW,224,4.0,17.0,19,0.00,,BKN140,0.00,828.00,VWS V14.01,2018-04-20 16:48:00,
2018-04-20 10:53:00,59.7,13.5,29.94,SW,229,4.0,15.0,16,0.00,,BKN140,0.00,837.00,VWS V14.01,2018-04-20 16:53:00,
2018-04-20 10:58:00,59.8,14.9,29.95,SW,235,8.0,16.0,17,0.00,,BKN140,0.00,846.00,VWS V14.01,2018-04-20 16:58:00,
2018-04-20 11:03:00,60.1,15.2,29.95,SW,228,4.0,11.0,17,0.00,,SCT130,0.00,860.00,VWS V14.01,2018-04-20 17:03:00,
2018-04-20 11:08:00,60.2,16.6,29.95,SSW,202,5.0,11.0,18,0.00,,SCT130,0.00,863.00,VWS V14.01,2018-04-20 17:08:00,
2018-04-20 11:13:00,60.1,15.2,29.95,WSW,238,1.0,13.0,17,0.00,,SCT130,0.00,874.00,VWS V14.01,2018-04-20 17:13:00,
2018-04-20 11:18:00,60.2,13.9,29.95,SW,216,7.0,12.0,16,0.00,,SCT130,0.00,881.00,VWS V14.01,2018-04-20 17:18:00,
2018-04-20 11:23:00,60.9,14.4,29.95,WSW,241,0.0,10.0,16,0.00,,SCT130,0.00,888.00,VWS V14.01,2018-04-20 17:23:00,
2018-04-20 11:28:00,61.4,13.4,29.95,SW,221,5.0,22.0,15,0.00,,SCT130,0.00,896.00,VWS V14.01,2018-04-20 17:28:00,
2018-04-20 11:33:00,61.7,12.1,29.95,SW,218,3.0,13.0,14,0.00,,SCT130,0.00,905.00,VWS V14.01,2018-04-20 17:33:00,
2018-04-20 11:38:00,61.8,10.5,29.95,SW,233,11.0,13.0,13,0.00,,SCT130,0.00,912.00,VWS V14.01,2018-04-20 17:38:00,
2018-04-20 11:43:00,61.8,12.1,29.95,SSE,154,5.0,11.0,14,0.00,,SCT130,0.00,925.00,VWS V14.01,2018-04-20 17:43:00,
2018-04-20 11:48:00,62.2,14.0,29.95,South,177,3.0,9.0,15,0.00,,SCT130,0.00,935.00,VWS V14.01,2018-04-20 17:48:00,
2018-04-20 11:53:00,62.4,12.6,29.95,SSW,207,0.0,7.0,14,0.00,,SCT130,0.00,935.00,VWS V14.01,2018-04-20 17:53:00,
2018-04-20 11:58:00,63.2,13.2,29.95,WSW,246,2.0,5.0,14,0.00,,SCT130,0.00,940.00,VWS V14.01,2018-04-20 17:58:00,
2018-04-20 12:03:00,63.7,13.6,29.95,SSW,210,5.0,7.0,14,0.00,,FEW130,0.00,939.00,VWS V14.01,2018-04-20 18:03:00,
2018-04-20 12:08:00,64.1,12.3,29.95,SSW,200,7.0,7.0,13,0.00,,FEW130,0.00,944.00,VWS V14.01,2018-04-20 18:08:00,
2018-04-20 12:13:00,64.5,10.8,29.95,SSW,200,9.0,13.0,12,0.00,,FEW130,0.00,946.00,VWS V14.01,2018-04-20 18:13:00,
2018-04-20 12:18:00,64.9,12.9,29.95,West,263,2.0,11.0,13,0.00,,FEW130,0.00,949.00,VWS V14.01,2018-04-20 18:18:00,
2018-04-20 12:23:00,65.1,9.3,29.95,WSW,238,2.0,11.0,11,0.00,,FEW130,0.00,963.00,VWS V14.01,2018-04-20 18:23:00,
2018-04-20 12:28:00,65.1,9.3,29.95,SSW,193,1.0,11.0,11,0.00,,FEW130,0.00,960.00,VWS V14.01,2018-04-20 18:28:00,
2018-04-20 12:33:00,65.2,9.4,29.95,SW,236,3.0,10.0,11,0.00,,FEW130,0.00,958.00,VWS V14.01,2018-04-20 18:33:00,
2018-04-20 12:38:00,65.1,11.3,29.95,WNW,287,4.0,12.0,12,0.00,,FEW130,0.00,963.00,VWS V14.01,2018-04-20 18:38:00,